Weather History for Valdosta, GA

Change the Weather History Date:

Friday, March 29, 2013

  Actual Average Record
Temperature  
Mean Temperature 56 °F -  
Max Temperature 71 °F 74 °F 87 °F (2007)
Min Temperature 40 °F 52 °F 40 °F (2013)
Degree Days  
Heating Degree Days 10    
Growing Degree Days 6 (Base 50)    
Moisture  
Dew Point 36 °F    
Average Humidity 49    
Maximum Humidity 88    
Minimum Humidity 25    
Precipitation  
Precipitation 0.00 in - - ()
Sea Level Pressure  
Sea Level Pressure 30.28 in    
Wind  
Wind Speed 2 mph (NNW)    
Max Wind Speed 8 mph    
Max Gust Speed -    
Visibility 10 miles    
Events Rain    
Averages and records for this station are not official NWS values.
T = Trace of Precipitation, MM = Missing Value Source: NWS Daily Summary

Daily Weather History Graph

Daily Weather History Graph

Search for Another Location

Airport:

Trip Planner

Search our weather history database for the weather conditions in past years. The results will help you decide how hot, cold, wet, or windy it might be!

Date:

Astronomy

Mar. 29, 2013 Rise Set
Actual Time 7:25 AM EDT 7:50 PM EDT
Civil Twilight 7:00 AM EDT 8:14 PM EDT
Nautical Twilight 6:32 AM EDT 8:42 PM EDT
Astronomical Twilight 6:03 AM EDT 9:11 PM EDT
Moon 10:35 PM EDT (3/29) 8:44 AM EDT (3/29)
Length of Visible Light 13h 13m
Length of Day
12h 25m
Waning Gibbous, 93% of the Moon is Illuminated
Mar 29
Waning Gibbous
Apr 3
Last Quarter
Apr 10
New
Apr 18
First Quarter
Apr 25
Full

Hourly Weather History & Observations

Time (EDT) Temp. Windchill Dew Point Humidity Pressure Visibility Wind Dir Wind Speed Gust Speed Precip Events Conditions
12:58 AM 45.9 °F - 39.2 °F 78% 30.30 in 10.0 mi Calm Calm - N/A   Clear
1:58 AM 45.3 °F - 38.7 °F 78% 30.30 in 10.0 mi Calm Calm - N/A   Clear
2:58 AM 43.9 °F 41.3 °F 38.1 °F 80% 30.30 in 10.0 mi WSW 4.6 mph - N/A   Clear
3:58 AM 46.0 °F - 35.8 °F 67% 30.29 in 10.0 mi Calm Calm - N/A   Clear
4:58 AM 41.7 °F - 36.7 °F 82% 30.30 in 10.0 mi NNE 2.3 mph - N/A   Clear
5:58 AM 41.0 °F - 36.5 °F 84% 30.31 in 10.0 mi Calm Calm - N/A   Clear
6:58 AM 40.3 °F - 36.5 °F 86% 30.32 in 10.0 mi Calm Calm - N/A   Clear
7:58 AM 40.3 °F - 36.9 °F 88% 30.33 in 10.0 mi Calm Calm - N/A   Clear
8:58 AM 49.8 °F - 39.2 °F 67% 30.35 in 10.0 mi North 1.2 mph - N/A   Clear
9:58 AM 59.0 °F - 34.5 °F 40% 30.35 in 10.0 mi Variable 3.5 mph - N/A   Clear
10:58 AM 62.6 °F - 31.1 °F 31% 30.34 in 10.0 mi East 5.8 mph - N/A   Clear
11:08 AM 64.4 °F - 32.0 °F 30% 30.34 in 2.5 mi Variable 4.6 mph - N/A   Haze
11:16 AM 64.4 °F - 32.0 °F 30% 30.34 in 8.0 mi NNE 3.5 mph - N/A   Clear
11:58 AM 65.7 °F - 31.3 °F 28% 30.34 in 10.0 mi ESE 3.5 mph - N/A   Clear
12:58 PM 67.3 °F - 31.1 °F 26% 30.33 in 10.0 mi Variable 2.3 mph - N/A   Clear
1:58 PM 68.5 °F - 32.4 °F 26% 30.30 in 10.0 mi SW 4.6 mph - N/A   Clear
2:58 PM 70.0 °F - 33.4 °F 26% 30.27 in 10.0 mi North 8.1 mph - N/A   Clear
3:58 PM 70.9 °F - 34.5 °F 26% 30.24 in 10.0 mi Variable 1.2 mph - N/A   Clear
4:54 PM 71.6 °F - 33.8 °F 25% 30.21 in 10.0 mi NNE 3.5 mph - N/A   Clear
5:58 PM 70.5 °F - 33.4 °F 26% 30.21 in 10.0 mi NNW 8.1 mph - N/A   Clear
6:42 PM 69.8 °F - 33.8 °F 27% 30.20 in 10.0 mi NNW 1.2 mph - N/A Rain Light Rain
6:47 PM 69.8 °F - 32.0 °F 25% 30.20 in 10.0 mi WSW 3.5 mph - N/A   Clear
6:58 PM 70.2 °F - 33.1 °F 25% 30.21 in 10.0 mi West 3.5 mph - 0.00 in   Clear
7:58 PM 62.2 °F - 39.6 °F 43% 30.22 in 10.0 mi East 1.2 mph - N/A   Clear
8:58 PM 56.8 °F - 45.0 °F 64% 30.22 in 10.0 mi ESE 2.3 mph - N/A   Clear
9:58 PM 60.3 °F - 39.2 °F 46% 30.24 in 10.0 mi WSW 3.5 mph - N/A   Clear
10:58 PM 57.6 °F - 39.6 °F 51% 30.26 in 10.0 mi SW 4.6 mph - N/A   Clear
11:58 PM 53.2 °F - 41.2 °F 64% 30.26 in 10.0 mi South 2.3 mph - N/A   Clear